DateTimeUTC,F1_A11,F1_S11,BsB_S11,BsG_S11,BsR_S11,BbsB_S11,BbsG_S11,BbsR_S11,BaB_A11,BaG_A11,BaR_A11,Tu_S11,T_S11,Uu_S11,U_S11,P_S11,T1_A11
2021-07-20T16:00:00Z,00000200,20000000,,,,,,,-000.58,0000.26,0000.12,19.4,25.8,07.1,04.8,0670.3,31.1
2021-07-20T16:01:00Z,00000200,20000000,,,,,,,0000.74,0000.08,-000.33,19.4,25.9,07.1,04.8,0670.3,31.1
2021-07-20T16:02:00Z,00000200,20000000,,,,,,,-000.30,0000.27,0000.30,19.4,25.9,07.1,04.8,0670.3,31.1
2021-07-20T16:03:00Z,00000200,60000000,,,,,,,-000.49,-000.67,-000.21,19.4,25.9,07.1,04.8,0670.3,31.1
2021-07-20T16:04:00Z,00000200,40000000,0000.16,0000.32,-000.05,0000.25,0000.15,0000.18,-000.29,-000.27,-000.36,19.4,25.7,06.8,04.7,0671.2,31.1
2021-07-20T16:05:00Z,00000200,00000000,0000.45,0000.29,0000.36,-000.15,0000.07,0000.12,0000.59,0000.45,0000.04,19.5,25.7,06.7,04.6,0671.3,31.1
2021-07-20T16:06:00Z,00000200,00000000,0000.66,0000.62,-000.16,0000.27,0000.28,0000.15,0000.38,0000.17,0000.75,19.5,25.7,06.9,04.7,0671.3,31.1
2021-07-20T16:07:00Z,00000200,00000000,-000.36,0000.35,0000.26,0000.55,0000.46,-000.18,-000.99,-000.47,-000.69,19.5,25.7,06.9,04.7,0671.3,31.1
2021-07-20T16:08:00Z,00000200,00000000,0000.47,0000.31,0000.16,0000.36,-000.10,-000.16,0000.81,0000.40,0000.50,19.5,25.7,06.8,04.7,0671.4,31.1
2021-07-20T16:09:00Z,00000200,00000000,0000.44,0000.19,-000.09,0000.02,0000.14,0000.06,-000.56,-000.06,-000.38,19.5,25.7,06.8,04.7,0671.3,31.1
2021-07-20T16:10:00Z,00000200,00000000,0000.63,0000.42,-000.18,0000.64,-000.05,-000.11,0000.66,0000.14,0000.32,19.5,25.7,06.9,04.7,0671.3,31.1
2021-07-20T16:11:00Z,00000200,00000000,-000.56,0000.50,0000.21,0000.44,0000.01,0000.40,-000.32,-000.06,0000.22,19.5,25.7,07.0,04.8,0671.3,31.1
2021-07-20T16:12:00Z,00000200,00000000,0000.25,0000.10,-000.15,-000.11,0000.31,-000.27,0000.46,0000.47,-000.01,19.5,25.7,07.0,04.8,0671.3,31.1
2021-07-20T16:13:00Z,00000200,00000000,0000.46,0000.33,0000.17,0000.99,0000.18,-000.03,-000.06,-000.51,-000.27,19.5,25.7,07.1,04.9,0671.2,31.1
2021-07-20T16:14:00Z,00000200,00000000,0000.63,0000.16,-000.00,0000.30,0000.17,-000.08,-000.71,0000.04,-000.18,19.5,25.7,06.9,04.7,0671.3,31.1
2021-07-20T16:15:00Z,00000200,00000000,0000.19,0000.56,0000.12,-000.05,0000.07,0000.17,0000.45,-000.00,0000.47,19.5,25.6,06.9,04.7,0671.4,31.1
2021-07-20T16:16:00Z,00000200,00000000,0000.38,0000.28,0000.34,0000.04,0000.30,0000.03,0000.12,0000.00,-000.37,19.5,25.6,07.1,04.9,0671.4,31.1
2021-07-20T16:17:00Z,00000200,00000000,-000.10,0000.50,0000.45,0000.31,0000.06,0000.17,0000.06,0000.33,0000.49,19.5,25.7,07.0,04.8,0671.4,31.1
2021-07-20T16:18:00Z,00000200,00000000,0000.36,0000.71,-000.14,0000.58,0000.12,0000.03,-000.08,0000.21,-000.16,19.5,25.6,07.2,04.9,0671.3,31.1
2021-07-20T16:19:00Z,00000200,00000000,0000.12,0000.54,0000.04,0000.39,0000.15,-000.04,0000.03,-000.11,-000.02,19.5,25.6,07.1,04.9,0671.2,31.1
2021-07-20T16:20:00Z,00000200,00000000,0000.41,0000.29,-000.08,0000.74,0000.19,-000.26,-000.18,-000.22,-000.22,19.5,25.7,06.9,04.7,0671.3,31.1
2021-07-20T16:21:00Z,00000200,00000000,-000.34,0000.34,-000.12,0000.29,-000.11,0000.04,0000.03,-000.01,0000.35,19.5,25.7,06.9,04.7,0671.3,31.1
2021-07-20T16:22:00Z,00000200,00000000,0000.53,0000.11,0000.22,0000.69,-000.07,0000.08,-000.31,-000.56,-000.45,19.5,25.7,06.8,04.7,0671.2,31.1
2021-07-20T16:23:00Z,00000200,00000000,0000.54,0000.59,0000.16,0000.38,0000.14,-000.16,0000.22,0000.28,0000.11,19.5,25.7,06.8,04.7,0671.3,31.1
2021-07-20T16:24:00Z,00000200,00000000,-000.07,0000.55,-000.24,-000.24,-000.07,-000.19,-000.10,0000.04,-000.06,19.5,25.7,06.8,04.7,0671.3,31.1
2021-07-20T16:25:00Z,00000200,00000000,-000.10,0000.20,-000.28,0000.02,0000.17,0000.02,0000.56,0000.31,0000.66,19.5,25.7,06.8,04.7,0671.4,31.1
2021-07-20T16:26:00Z,00000200,00000000,0000.12,0000.11,0000.10,0000.11,-000.12,-000.22,0000.05,0000.03,-000.32,19.5,25.7,07.2,04.9,0671.3,31.1
2021-07-20T16:27:00Z,00000200,00000000,0000.09,0000.34,0000.05,0000.25,0000.08,-000.00,0000.63,0000.77,0000.95,19.5,25.6,07.3,05.0,0671.4,31.1
2021-07-20T16:28:00Z,00000200,00000000,0000.19,0000.41,-000.03,0000.72,0000.08,0000.05,0000.29,0000.07,0000.11,19.5,25.6,07.5,05.2,0671.3,31.1
2021-07-20T16:29:00Z,00000200,00000000,0000.31,0000.47,-000.14,0000.19,0000.09,0000.04,-000.57,-000.23,-000.43,19.5,25.6,07.4,05.1,0671.3,31.1
2021-07-20T16:30:00Z,00000200,00000000,-000.11,0000.46,0000.15,0000.83,0000.11,0000.09,0000.20,0000.16,0000.16,19.5,25.6,07.2,04.9,0671.3,31.1
2021-07-20T16:31:00Z,00000200,00000000,0000.43,0000.41,0000.23,0000.12,0000.13,-000.02,0000.03,-000.02,0000.02,19.5,25.6,07.3,05.0,0671.4,31.1
2021-07-20T16:32:00Z,00000200,00000000,0000.09,0000.46,0000.12,0000.43,-000.16,0000.26,0000.11,0000.24,0000.04,19.5,25.6,07.4,05.1,0671.3,31.1
2021-07-20T16:33:00Z,00000200,00000000,0000.17,0000.29,0000.26,0000.47,0000.08,0000.00,-000.29,-000.48,-000.24,19.5,25.6,07.2,04.9,0671.3,31.1
2021-07-20T16:34:00Z,00000200,00000000,-000.25,0000.65,0000.33,0000.39,0000.03,0000.24,-000.33,-000.06,0000.06,19.5,25.7,07.0,04.8,0671.4,31.1
2021-07-20T16:35:00Z,00000200,00000000,0000.55,0000.48,-000.06,0000.44,-000.09,0000.09,0000.37,0000.12,0000.22,19.5,25.6,07.1,04.9,0671.4,31.1
2021-07-20T16:36:00Z,00000200,00000000,0000.04,0000.46,0000.38,-000.07,0000.19,0000.18,-000.45,-000.09,-000.21,19.5,25.6,07.1,04.9,0671.4,31.1
2021-07-20T16:37:00Z,00000200,00000000,-000.14,0000.73,0000.29,-000.11,0000.11,0000.11,0000.31,-000.05,0000.05,19.5,25.6,07.0,04.8,0671.4,31.1
2021-07-20T16:38:00Z,00000200,00000000,-000.22,0000.20,0000.02,0000.83,0000.14,0000.20,0000.47,0000.45,0000.07,19.5,25.6,07.1,04.9,0671.5,31.1
2021-07-20T16:39:00Z,00000200,00000000,0000.30,0000.42,-000.04,0000.69,0000.00,0000.14,-000.53,-000.27,0000.34,19.5,25.6,07.2,05.0,0671.4,31.1
2021-07-20T16:40:00Z,00000200,00000000,0000.72,0000.72,0000.11,0000.10,0000.01,-000.18,0000.42,0000.29,-000.15,19.5,25.6,07.1,04.9,0671.4,31.1
2021-07-20T16:41:00Z,00000200,00000000,0000.14,0000.50,0000.05,0000.41,0000.20,-000.03,0000.61,0000.23,0000.47,19.5,25.6,07.3,05.1,0671.4,31.1
2021-07-20T16:42:00Z,00000200,00000000,-000.18,0000.22,-000.06,0000.66,0000.00,0000.07,-000.05,0000.33,0000.04,19.5,25.6,07.3,05.0,0671.4,31.1
2021-07-20T16:43:00Z,00000200,00000000,0000.40,0000.19,0000.20,0000.17,0000.08,-000.05,-000.06,-000.14,0000.27,19.5,25.6,07.4,05.1,0671.4,31.1
2021-07-20T16:44:00Z,00000200,00000000,0000.17,0000.31,0000.22,0000.69,-000.10,-000.31,0000.06,0000.27,-000.09,19.5,25.6,07.4,05.1,0671.4,31.1
2021-07-20T16:45:00Z,00000200,00000000,0000.68,0000.10,-000.01,0000.68,-000.07,0000.09,0000.60,-000.17,0000.16,19.5,25.6,07.5,05.2,0671.4,31.1
2021-07-20T16:46:00Z,00000200,00000000,-000.15,0000.52,0000.10,0000.98,0000.15,0000.01,0000.12,0000.66,0000.17,19.5,25.6,07.6,05.3,0671.3,31.1
2021-07-20T16:47:00Z,00000200,00000000,-000.52,0000.02,0000.01,0000.66,-000.04,0000.19,-000.77,-000.95,-000.31,19.5,25.6,07.4,05.1,0671.3,31.1
2021-07-20T16:48:00Z,00000200,00000000,0000.67,0000.70,0000.11,0000.76,0000.16,0000.30,-000.21,0000.37,-000.09,19.5,25.6,07.3,05.0,0671.3,31.1
2021-07-20T16:49:00Z,00000200,00000000,0000.53,0000.52,-000.16,0000.18,0000.07,-000.40,-000.04,-000.61,-000.29,19.5,25.6,07.0,04.8,0671.3,31.1
2021-07-20T16:50:00Z,00000200,00000000,0000.21,0000.57,-000.28,0000.22,0000.24,-000.04,0000.26,0000.54,0000.53,19.5,25.6,07.1,04.9,0671.4,31.1
2021-07-20T16:51:00Z,00000200,00000000,0000.67,0000.53,-000.33,0000.54,0000.06,-000.29,0000.21,0000.00,-000.27,19.5,25.6,07.2,05.0,0671.4,31.1
2021-07-20T16:52:00Z,00000200,00000000,0000.10,0000.23,-000.06,0000.78,0000.05,0000.13,-000.32,-000.64,-000.13,19.5,25.6,07.1,04.9,0671.4,31.1
2021-07-20T16:53:00Z,00000200,00000000,0000.37,0000.32,0000.39,0000.45,0000.16,0000.27,0000.10,0000.47,0000.36,19.5,25.6,07.0,04.9,0671.4,31.1
2021-07-20T16:54:00Z,00000200,00000000,-000.20,0000.50,0000.42,-000.02,0000.12,0000.18,0000.22,0000.47,0000.12,19.5,25.6,07.3,05.0,0671.4,31.1
2021-07-20T16:55:00Z,00000200,00000000,0000.13,0000.45,0000.06,0000.33,0000.02,0000.20,0000.18,0000.27,0000.09,19.5,25.6,07.3,05.1,0671.4,31.1
2021-07-20T16:56:00Z,00000200,00000000,0000.10,0000.21,0000.12,0001.23,0000.12,-000.23,0000.25,-000.16,0000.04,19.5,25.6,07.4,05.1,0671.4,31.1
2021-07-20T16:57:00Z,00000200,40000000,,,,,,,-000.49,0000.13,-000.00,19.6,25.7,07.2,05.0,0671.4,31.1
2021-07-20T16:58:00Z,00000200,60000000,,,,,,,-000.17,-000.56,-000.38,19.4,25.7,07.0,04.8,0670.3,31.1
2021-07-20T16:59:00Z,00000200,20000000,,,,,,,-000.26,-000.23,0000.13,19.4,25.8,06.8,04.6,0670.3,31.1
